Location: Newark
(45.6833°N, 11.3833°E)
Time: 03:12:11
(UTC+00:00)

ISS - Visible Passes

Search period start: 23 October 2019 00:00
Search period end: 02 November 2019 00:00
Orbit: 411 x 421 km, 51.6° (Epoch: 23 October)

Date Brightness Start Highest point End Pass type
(mag) Time Alt. Az. Time Alt. Az. Time Alt. Az.
24 Oct -1.3 04:48:44 10° SSW 04:51:27 23° SE 04:54:11 10° E visible
25 Oct -0.8 04:01:11 10° SSE 04:03:05 14° SE 04:05:00 10° E visible
26 Oct -3.1 04:47:33 10° SW 04:50:51 55° SE 04:54:09 10° ENE visible
27 Oct -2.3 04:00:54 23° S 04:02:21 34° SE 04:05:26 10° ENE visible
28 Oct -1.2 03:14:47 19° ESE 03:14:47 19° ESE 03:16:32 10° E visible
28 Oct -3.7 04:47:42 15° WSW 04:50:22 68° NNW 04:53:43 10° ENE visible
29 Oct -3.9 04:01:27 71° SW 04:01:45 81° SSE 04:05:08 10° ENE visible
30 Oct -1.2 03:15:04 22° ENE 03:15:04 22° ENE 03:16:28 10° ENE visible
30 Oct -3.0 04:47:58 19° WNW 04:50:00 39° NNW 04:53:12 10° NE visible
31 Oct -3.3 04:01:29 49° N 04:01:29 49° N 04:04:35 10° ENE visible
01 Nov -1.0 03:14:56 18° ENE 03:14:56 18° ENE 03:15:58 10° ENE visible
01 Nov -2.5 04:47:50 18° WNW 04:49:42 30° N 04:52:43 10° ENE visible
